User: anonymous   Login
Location: Unspecified
(0.0000°N, 0.0000°E)
Time: 23:48:03
(UTC+02:00)
Language:

Resurs 01 Rocket - Orbit

View from above orbital plane
View from above orbital plane
View from above satellite
View from above satellite

Ground track
Ground track

The orbit data is extracted from the following two-line orbital elements,

1 23343U 94074B   16208.14041523 -.00000008  00000-0  65452-5 0  9992
2 23343  98.1913 235.2176 0007843  46.3256 354.8049 14.76664678168713
Epoch (UTC): 26 July 2016 03:22:11
Eccentricity: 0.0007843
inclination: 98.1913°
perigee height: 634 km
apogee height: 645 km
right ascension of ascending node: 235.2176°
argument of perigee: 46.3256°
revolutions per day: 14.76664678
mean anomaly at epoch: 354.8049°
orbit number at epoch: 16871

The dashed part of the orbit path shows where the satellite is in the earth's shadow,  

DLR